Time,TemperatureF,DewpointF,PressureIn,WindDirection,WindDirectionDegrees,WindSpeedMPH,WindSpeedGustMPH,Humidity,HourlyPrecipIn,Conditions,Clouds,dailyrainin,SolarRadiationWatts/m^2,SoftwareType,DateUTC
2013-04-09 00:02:00,38.0,37.0,-100.00,West,261,3.0,10.0,98,0.00,,,0.08,0.000000,,2013-04-09 07:02:00,
2013-04-09 00:12:00,38.0,37.0,-100.00,West,261,3.0,10.0,98,0.00,,,0.08,0.000000,,2013-04-09 07:12:00,
2013-04-09 00:32:00,39.0,37.0,-100.00,WSW,254,2.0,19.0,92,0.00,,,-99.99,0.000000,,2013-04-09 07:32:00,
2013-04-09 00:42:00,39.0,37.0,-100.00,WSW,254,2.0,19.0,92,0.00,,,-99.99,0.000000,,2013-04-09 07:42:00,
2013-04-09 00:52:00,39.0,37.0,-100.00,WSW,254,2.0,19.0,92,0.00,,,-99.99,0.000000,,2013-04-09 07:52:00,
2013-04-09 01:02:00,39.0,37.0,-100.00,WSW,254,2.0,19.0,92,0.00,,,-99.99,0.000000,,2013-04-09 08:02:00,
2013-04-09 01:12:00,39.0,37.0,-100.00,WSW,254,2.0,19.0,92,0.00,,,-99.99,0.000000,,2013-04-09 08:12:00,
2013-04-09 01:42:00,36.0,35.0,-100.00,SSW,206,0.0,8.0,97,0.00,,,0.08,0.000000,,2013-04-09 08:42:00,
2013-04-09 01:52:00,36.0,35.0,-100.00,SSW,206,0.0,8.0,97,0.00,,,0.08,0.000000,,2013-04-09 08:52:00,
2013-04-09 02:02:00,36.0,35.0,-100.00,SSW,206,0.0,8.0,97,0.00,,,0.08,0.000000,,2013-04-09 09:02:00,
2013-04-09 02:12:00,36.0,35.0,-100.00,SSW,206,0.0,8.0,97,0.00,,,0.08,0.000000,,2013-04-09 09:12:00,
2013-04-09 02:44:00,38.0,36.0,-100.00,SSW,211,2.0,7.0,92,0.00,,,0.08,0.000000,,2013-04-09 09:44:00,
2013-04-09 02:52:00,38.0,36.0,-100.00,SSW,211,2.0,7.0,92,0.00,,,0.08,0.000000,,2013-04-09 09:52:00,
2013-04-09 03:03:00,38.0,36.0,-100.00,SSW,211,2.0,7.0,92,0.00,,,0.08,0.000000,,2013-04-09 10:03:00,
2013-04-09 03:12:00,38.0,36.0,-100.00,SSW,211,2.0,7.0,92,0.00,,,0.08,0.000000,,2013-04-09 10:12:00,
2013-04-09 03:33:00,35.0,34.0,-100.00,SW,232,0.0,6.0,97,0.00,,,0.08,0.000000,,2013-04-09 10:33:00,
2013-04-09 03:43:00,35.0,34.0,-100.00,SW,232,0.0,6.0,97,0.00,,,0.08,0.000000,,2013-04-09 10:43:00,
2013-04-09 03:53:00,35.0,34.0,-100.00,SW,232,0.0,6.0,97,0.00,,,0.08,0.000000,,2013-04-09 10:53:00,
2013-04-09 04:02:00,35.0,34.0,-100.00,SW,232,0.0,6.0,97,0.00,,,0.08,0.000000,,2013-04-09 11:02:00,
2013-04-09 04:12:00,35.0,34.0,-100.00,SW,232,0.0,6.0,97,0.00,,,0.08,0.000000,,2013-04-09 11:12:00,
2013-04-09 04:32:00,37.0,36.0,-100.00,West,276,2.0,7.0,96,0.00,,,0.08,0.000000,,2013-04-09 11:32:00,
2013-04-09 04:42:00,37.0,36.0,-100.00,West,276,2.0,7.0,96,0.00,,,0.08,0.000000,,2013-04-09 11:42:00,
2013-04-09 04:52:00,37.0,36.0,-100.00,West,276,2.0,7.0,96,0.00,,,0.08,0.000000,,2013-04-09 11:52:00,
2013-04-09 05:02:00,37.0,36.0,-100.00,West,276,2.0,7.0,96,0.00,,,0.08,0.000000,,2013-04-09 12:02:00,
2013-04-09 05:12:00,37.0,36.0,-100.00,West,276,2.0,7.0,96,0.00,,,0.08,0.000000,,2013-04-09 12:12:00,
2013-04-09 05:33:00,36.0,31.0,-100.00,WNW,285,5.0,14.0,83,0.00,,,0.07,0.000000,,2013-04-09 12:33:00,
2013-04-09 05:43:00,36.0,31.0,-100.00,WNW,285,5.0,14.0,83,0.00,,,0.07,0.000000,,2013-04-09 12:43:00,
2013-04-09 05:53:00,36.0,31.0,-100.00,WNW,285,5.0,14.0,83,0.00,,,0.07,0.000000,,2013-04-09 12:53:00,
2013-04-09 06:02:00,36.0,31.0,-100.00,WNW,285,5.0,14.0,83,0.00,,,0.07,0.000000,,2013-04-09 13:02:00,
2013-04-09 06:12:00,36.0,31.0,-100.00,WNW,285,5.0,14.0,83,0.00,,,0.07,0.000000,,2013-04-09 13:12:00,
2013-04-09 06:33:00,36.0,30.0,-100.00,WNW,286,5.0,14.0,78,0.00,,,0.06,0.000000,,2013-04-09 13:33:00,
2013-04-09 06:43:00,36.0,30.0,-100.00,WNW,286,5.0,14.0,78,0.00,,,0.06,0.000000,,2013-04-09 13:43:00,
2013-04-09 06:53:00,36.0,30.0,-100.00,WNW,286,5.0,14.0,78,0.00,,,0.06,0.000000,,2013-04-09 13:53:00,
2013-04-09 07:02:00,36.0,30.0,-100.00,WNW,286,5.0,14.0,78,0.00,,,0.06,0.000000,,2013-04-09 14:02:00,
2013-04-09 07:12:00,36.0,30.0,-100.00,WNW,286,5.0,14.0,78,0.00,,,0.06,0.000000,,2013-04-09 14:12:00,
2013-04-09 07:43:00,39.0,28.0,-100.00,West,277,8.0,21.0,65,0.00,,,0.04,38.000000,,2013-04-09 14:43:00,
2013-04-09 07:52:00,39.0,28.0,-100.00,West,277,8.0,21.0,65,0.00,,,0.04,38.000000,,2013-04-09 14:52:00,
2013-04-09 08:02:00,39.0,28.0,-100.00,West,277,8.0,21.0,65,0.00,,,0.04,38.000000,,2013-04-09 15:02:00,
2013-04-09 08:12:00,39.0,28.0,-100.00,West,277,8.0,21.0,65,0.00,,,0.04,38.000000,,2013-04-09 15:12:00,
2013-04-09 08:34:00,43.0,31.0,-100.00,SSW,206,6.0,14.0,63,0.00,,,0.03,286.000000,,2013-04-09 15:34:00,
2013-04-09 08:43:00,43.0,31.0,-100.00,SSW,206,6.0,14.0,63,0.00,,,0.03,286.000000,,2013-04-09 15:43:00,
2013-04-09 08:53:00,43.0,31.0,-100.00,SSW,206,6.0,14.0,63,0.00,,,0.03,286.000000,,2013-04-09 15:53:00,
2013-04-09 09:03:00,43.0,31.0,-100.00,SSW,206,6.0,14.0,63,0.00,,,0.03,286.000000,,2013-04-09 16:03:00,
2013-04-09 09:12:00,43.0,31.0,-100.00,SSW,206,6.0,14.0,63,0.00,,,0.03,286.000000,,2013-04-09 16:12:00,
2013-04-09 09:34:00,47.0,30.0,-100.00,SSW,193,7.0,14.0,52,0.00,,,-99.99,568.000000,,2013-04-09 16:34:00,
2013-04-09 09:42:00,47.0,30.0,-100.00,SSW,193,7.0,14.0,52,0.00,,,-99.99,568.000000,,2013-04-09 16:42:00,
2013-04-09 09:53:00,47.0,30.0,-100.00,SSW,193,7.0,14.0,52,0.00,,,-99.99,568.000000,,2013-04-09 16:53:00,
2013-04-09 10:02:00,47.0,30.0,-100.00,SSW,193,7.0,14.0,52,0.00,,,-99.99,568.000000,,2013-04-09 17:02:00,
2013-04-09 10:12:00,47.0,30.0,-100.00,SSW,193,7.0,14.0,52,0.00,,,-99.99,568.000000,,2013-04-09 17:12:00,
2013-04-09 10:33:00,50.0,31.0,-100.00,South,189,8.0,14.0,48,0.00,,,0.02,838.000000,,2013-04-09 17:33:00,
2013-04-09 10:43:00,50.0,31.0,-100.00,South,189,8.0,14.0,48,0.00,,,0.02,838.000000,,2013-04-09 17:43:00,
2013-04-09 10:53:00,50.0,31.0,-100.00,South,189,8.0,14.0,48,0.00,,,0.02,838.000000,,2013-04-09 17:53:00,
2013-04-09 11:02:00,50.0,31.0,-100.00,South,189,8.0,14.0,48,0.00,,,0.02,838.000000,,2013-04-09 18:02:00,
2013-04-09 11:12:00,50.0,31.0,-100.00,South,189,8.0,14.0,48,0.00,,,0.02,838.000000,,2013-04-09 18:12:00,
2013-04-09 11:33:00,54.0,30.0,-100.00,SSW,202,7.0,16.0,39,0.00,,,0.02,1043.000000,,2013-04-09 18:33:00,
2013-04-09 11:43:00,54.0,30.0,-100.00,SSW,202,7.0,16.0,39,0.00,,,0.02,1043.000000,,2013-04-09 18:43:00,
2013-04-09 11:53:00,54.0,30.0,-100.00,SSW,202,7.0,16.0,39,0.00,,,0.02,1043.000000,,2013-04-09 18:53:00,
2013-04-09 12:02:00,54.0,30.0,-100.00,SSW,202,7.0,16.0,39,0.00,,,0.02,1043.000000,,2013-04-09 19:02:00,
2013-04-09 12:11:00,54.0,30.0,-100.00,SSW,202,7.0,16.0,39,0.00,,,0.02,1043.000000,,2013-04-09 19:11:00,
2013-04-09 12:52:00,57.0,24.0,-100.00,SSW,212,7.0,19.0,28,0.00,,,0.02,1174.000000,,2013-04-09 19:52:00,
2013-04-09 13:02:00,57.0,24.0,-100.00,SSW,212,7.0,19.0,28,0.00,,,0.02,1174.000000,,2013-04-09 20:02:00,
2013-04-09 13:12:00,57.0,24.0,-100.00,SSW,212,7.0,19.0,28,0.00,,,0.02,1174.000000,,2013-04-09 20:12:00,
2013-04-09 13:44:00,59.0,19.0,-100.00,SSW,211,7.0,15.0,21,0.00,,,0.02,1228.000000,,2013-04-09 20:44:00,
2013-04-09 13:52:00,59.0,19.0,-100.00,SSW,211,7.0,15.0,21,0.00,,,0.02,1228.000000,,2013-04-09 20:52:00,
2013-04-09 14:02:00,59.0,19.0,-100.00,SSW,211,7.0,15.0,21,0.00,,,0.02,1228.000000,,2013-04-09 21:02:00,
2013-04-09 14:12:00,59.0,19.0,-100.00,SSW,211,7.0,15.0,21,0.00,,,0.02,1228.000000,,2013-04-09 21:12:00,
2013-04-09 14:53:00,60.0,15.0,-100.00,SW,230,9.0,18.0,17,0.00,,,0.01,1198.000000,,2013-04-09 21:53:00,
2013-04-09 15:02:00,60.0,15.0,-100.00,SW,230,9.0,18.0,17,0.00,,,0.01,1198.000000,,2013-04-09 22:02:00,
2013-04-09 15:12:00,60.0,15.0,-100.00,SW,230,9.0,18.0,17,0.00,,,0.01,1198.000000,,2013-04-09 22:12:00,
2013-04-09 15:33:00,62.0,12.0,-100.00,West,263,9.0,22.0,14,0.00,,,-99.99,1089.000000,,2013-04-09 22:33:00,
2013-04-09 15:43:00,62.0,12.0,-100.00,West,263,9.0,22.0,14,0.00,,,-99.99,1089.000000,,2013-04-09 22:43:00,
2013-04-09 15:53:00,62.0,12.0,-100.00,West,263,9.0,22.0,14,0.00,,,-99.99,1089.000000,,2013-04-09 22:53:00,
2013-04-09 16:02:00,62.0,12.0,-100.00,West,263,9.0,22.0,14,0.00,,,-99.99,1089.000000,,2013-04-09 23:02:00,
2013-04-09 16:12:00,62.0,12.0,-100.00,West,263,9.0,22.0,14,0.00,,,-99.99,1089.000000,,2013-04-09 23:12:00,
2013-04-09 16:33:00,64.0,12.0,-100.00,WNW,285,9.0,20.0,13,0.00,,,0.00,902.000000,,2013-04-09 23:33:00,
2013-04-09 16:42:00,64.0,12.0,-100.00,WNW,285,9.0,20.0,13,0.00,,,0.00,902.000000,,2013-04-09 23:42:00,
2013-04-09 16:53:00,64.0,12.0,-100.00,WNW,285,9.0,20.0,13,0.00,,,0.00,902.000000,,2013-04-09 23:53:00,
2013-04-09 17:02:00,64.0,12.0,-100.00,WNW,285,9.0,20.0,13,0.00,,,0.00,902.000000,,2013-04-10 00:02:00,
2013-04-09 17:11:00,64.0,12.0,-100.00,WNW,285,9.0,20.0,13,0.00,,,0.00,902.000000,,2013-04-10 00:11:00,
2013-04-09 17:43:00,63.0,10.0,-100.00,WNW,286,9.0,19.0,12,0.00,,,-99.99,663.000000,,2013-04-10 00:43:00,
2013-04-09 17:52:00,63.0,10.0,-100.00,WNW,286,9.0,19.0,12,0.00,,,-99.99,663.000000,,2013-04-10 00:52:00,
2013-04-09 18:02:00,63.0,10.0,-100.00,WNW,286,9.0,19.0,12,0.00,,,-99.99,663.000000,,2013-04-10 01:02:00,
2013-04-09 18:11:00,63.0,10.0,-100.00,WNW,286,9.0,19.0,12,0.00,,,-99.99,663.000000,,2013-04-10 01:11:00,
2013-04-09 18:33:00,61.0,6.0,-100.00,WNW,292,10.0,22.0,11,0.00,,,0.00,377.000000,,2013-04-10 01:33:00,
2013-04-09 18:43:00,61.0,6.0,-100.00,WNW,292,10.0,22.0,11,0.00,,,0.00,377.000000,,2013-04-10 01:43:00,
2013-04-09 18:52:00,61.0,6.0,-100.00,WNW,292,10.0,22.0,11,0.00,,,0.00,377.000000,,2013-04-10 01:52:00,
2013-04-09 19:12:00,61.0,6.0,-100.00,WNW,292,10.0,22.0,11,0.00,,,0.00,377.000000,,2013-04-10 02:12:00,
2013-04-09 19:33:00,52.0,30.0,-100.00,South,190,5.0,18.0,42,0.00,,,0.00,32.000000,,2013-04-10 02:33:00,
2013-04-09 19:43:00,52.0,30.0,-100.00,South,190,5.0,18.0,42,0.00,,,0.00,32.000000,,2013-04-10 02:43:00,
2013-04-09 19:52:00,52.0,30.0,-100.00,South,190,5.0,18.0,42,0.00,,,0.00,32.000000,,2013-04-10 02:52:00,
2013-04-09 20:02:00,52.0,30.0,-100.00,South,190,5.0,18.0,42,0.00,,,0.00,32.000000,,2013-04-10 03:02:00,
2013-04-09 20:12:00,52.0,30.0,-100.00,South,190,5.0,18.0,42,0.00,,,0.00,32.000000,,2013-04-10 03:12:00,
2013-04-09 20:43:00,46.0,29.0,-100.00,West,268,0.0,5.0,52,0.00,,,0.00,0.000000,,2013-04-10 03:43:00,
2013-04-09 20:53:00,46.0,29.0,-100.00,West,268,0.0,5.0,52,0.00,,,0.00,0.000000,,2013-04-10 03:53:00,
2013-04-09 21:03:00,46.0,29.0,-100.00,West,268,0.0,5.0,52,0.00,,,0.00,0.000000,,2013-04-10 04:03:00,
2013-04-09 21:13:00,46.0,29.0,-100.00,West,268,0.0,5.0,52,0.00,,,0.00,0.000000,,2013-04-10 04:13:00,
2013-04-09 21:33:00,44.0,29.0,-100.00,WNW,297,0.0,5.0,56,0.00,,,0.00,0.000000,,2013-04-10 04:33:00,
2013-04-09 21:43:00,44.0,29.0,-100.00,WNW,297,0.0,5.0,56,0.00,,,0.00,0.000000,,2013-04-10 04:43:00,
2013-04-09 21:53:00,44.0,29.0,-100.00,WNW,297,0.0,5.0,56,0.00,,,0.00,0.000000,,2013-04-10 04:53:00,
2013-04-09 22:02:00,44.0,29.0,-100.00,WNW,297,0.0,5.0,56,0.00,,,0.00,0.000000,,2013-04-10 05:02:00,
2013-04-09 22:12:00,44.0,29.0,-100.00,WNW,297,0.0,5.0,56,0.00,,,0.00,0.000000,,2013-04-10 05:12:00,
2013-04-09 22:33:00,46.0,29.0,-100.00,SSE,155,0.0,6.0,51,0.00,,,0.00,0.000000,,2013-04-10 05:33:00,
2013-04-09 22:43:00,46.0,29.0,-100.00,SSE,155,0.0,6.0,51,0.00,,,0.00,0.000000,,2013-04-10 05:43:00,
2013-04-09 22:53:00,46.0,29.0,-100.00,SSE,155,0.0,6.0,51,0.00,,,0.00,0.000000,,2013-04-10 05:53:00,
2013-04-09 23:02:00,46.0,29.0,-100.00,SSE,155,0.0,6.0,51,0.00,,,0.00,0.000000,,2013-04-10 06:02:00,
2013-04-09 23:12:00,46.0,29.0,-100.00,SSE,155,0.0,6.0,51,0.00,,,0.00,0.000000,,2013-04-10 06:12:00,
2013-04-09 23:42:00,46.0,24.0,-100.00,NE,51,1.0,6.0,42,0.00,,,0.00,0.000000,,2013-04-10 06:42:00,
2013-04-09 23:52:00,46.0,24.0,-100.00,NE,51,1.0,6.0,42,0.00,,,0.00,0.000000,,2013-04-10 06:52:00,